Theta_e
329 331 335 337 338 340 342 343 346 347 349 350 351 352 353 355 356 352 352 354 352 353 351 353 359 360 360 361 362 361 364 362 360
329 330 333 336 338 340 342 344 346 347 349 351 350 351 353 353 354 354 353 356 357 354 357 355 358 358 359 361 361 362 362 359 360
329 332 333 336 338 341 343 344 346 348 350 351 351 351 351 350 352 354 354 355 356 357 357 357 358 359 358 359 361 362 362 359 361
328 331 333 335 338 341 345 345 346 347 349 350 350 350 352 351 350 352 354 353 355 357 358 359 358 360 360 360 359 361 362 361 360
329 332 333 336 338 340 342 344 346 347 348 349 350 351 352 352 353 352 351 353 355 357 357 360 360 361 359 360 360 361 360 359 357
328 333 333 336 338 339 342 342 347 347 350 349 350 352 351 352 352 353 353 354 357 358 357 358 359 361 360 361 360 360 360 360 359
329 330 332 336 337 336 341 341 346 348 349 352 351 352 352 352 352 354 354 355 356 358 360 359 359 361 361 361 361 360 359 359 359
330 330 332 335 337 339 339 342 346 348 350 352 353 352 352 353 355 355 356 356 357 358 358 360 358 359 360 360 359 356 359 361 359
328 331 332 333 336 337 339 340 346 344 350 350 350 350 352 355 356 356 356 357 356 358 358 359 359 354 357 357 358 332 334 343 357
325 331 334 334 335 338 340 343 347 348 346 349 352 348 351 353 355 354 356 357 356 355 356 357 357 356 356 352 352 327 327 331 351
323 326 331 336 338 340 343 346 346 348 349 349 350 351 350 351 350 351 351 353 354 354 353 352 352 349 347 346 333 318 319 325 345
322 324 327 334 339 341 343 344 346 347 345 346 345 344 344 343 344 341 341 341 345 343 344 343 342 345 341 340 334 316 316 324 345
322 324 325 329 335 337 337 339 344 341 340 340 342 337 339 341 341 340 339 339 340 342 341 335 327 321 320 315 325 317 315 323 343
322 323 325 327 334 332 332 335 339 340 341 338 340 341 342 341 341 339 339 340 338 336 331 326 321 318 316 317 314 323 313 320 337
319 320 322 324 324 326 331 334 337 335 333 338 339 338 339 340 340 340 336 332 328 328 325 321 318 316 314 316 316 310 312 314 319
319 319 320 322 322 322 325 328 330 326 327 331 335 331 326 326 327 327 333 329 324 322 321 319 316 317 315 315 314 314 309 310 313
321 321 320 321 321 322 321 325 327 326 325 327 323 321 319 315 315 313 314 316 323 323 322 320 322 320 317 314 314 310 310 312 317
320 321 322 324 323 321 321 323 326 327 322 321 318 317 316 314 313 310 307 304 306 306 302 305 318 318 314 308 304 299 298 298 304
320 318 320 320 321 320 320 320 320 321 323 320 317 314 314 312 313 313 312 309 305 302 300 298 296 297 302 299 299 296 295 294 295
316 318 318 317 318 318 319 319 319 322 321 326 325 321 316 313 314 315 314 315 315 311 301 297 296 296 296 298 300 295 294 294 296
Wind_Speed
13 17 16 18 20 18 17 17 16 15 15 14 14 13 11 9 9 7 7 9 7 7 6 6 6 6 6 6 5 4 3 3 3
20 18 19 20 19 18 16 16 17 17 16 15 15 14 11 10 8 8 8 8 8 7 7 6 7 8 8 7 6 5 4 4 5
22 20 20 19 18 18 18 17 16 15 15 16 15 14 11 10 10 10 9 7 8 8 8 8 7 8 8 8 8 7 7 6 6
18 21 19 15 18 18 17 15 15 15 14 14 15 14 13 11 11 10 9 8 8 8 7 8 9 9 9 9 9 9 8 7 6
13 18 20 18 19 17 17 16 15 16 15 15 15 14 13 13 11 10 10 10 9 8 8 8 9 8 7 8 9 10 10 9 7
5 15 20 20 16 17 15 17 15 16 15 16 14 13 13 12 12 12 12 11 9 8 8 9 9 8 9 8 9 10 10 9 9
5 8 15 18 18 14 14 13 16 15 15 14 14 14 14 14 14 14 12 11 10 9 8 8 9 9 7 7 7 8 9 9 9
6 5 11 12 16 15 12 12 14 13 12 11 13 13 13 14 12 13 11 10 9 9 8 8 8 8 8 7 7 6 9 10 9
6 1 7 10 11 8 10 10 13 9 12 11 9 9 13 11 11 11 11 10 9 8 8 7 6 5 6 6 3 4 3 5 6
7 3 4 4 6 9 9 12 11 10 6 6 10 8 8 9 10 10 9 8 8 7 6 4 5 4 3 2 2 2 1 2 4
6 7 5 4 5 5 5 6 8 8 8 7 7 8 8 9 8 8 7 7 8 7 5 4 3 3 2 2 4 9 8 6 5
5 5 4 4 5 5 5 7 7 8 8 9 9 9 6 5 6 7 5 6 5 2 4 3 3 3 4 3 1 6 6 7 5
6 6 5 5 7 7 8 7 8 9 8 9 8 4 7 5 3 4 5 6 6 4 2 4 4 5 3 3 1 5 8 5 3
5 6 7 6 7 8 9 7 5 8 8 7 6 6 4 4 3 4 6 5 3 4 5 6 5 4 3 3 5 5 8 1 3
6 7 7 7 7 8 8 6 5 6 7 5 7 6 7 5 3 3 3 6 5 5 5 6 5 4 3 4 6 11 8 8 8
8 7 6 6 7 8 7 6 6 7 5 5 8 9 7 5 6 6 3 6 6 5 5 4 4 3 3 3 3 3 10 11 9
9 8 6 7 8 9 9 9 9 7 7 8 9 9 8 7 7 7 7 6 5 4 4 3 2 3 4 4 3 4 4 3 3
9 9 7 7 9 9 9 9 9 9 7 8 10 9 7 6 6 6 5 8 5 5 5 4 3 3 4 3 4 2 4 4 3
9 9 7 8 8 10 9 9 9 9 7 7 7 7 6 5 5 4 4 5 6 10 7 7 8 5 3 2 7 8 5 6 7
8 8 8 8 8 8 8 9 9 7 6 6 7 7 6 5 5 4 4 4 4 5 3 5 6 7 7 4 7 2 4 6 6
Wind_Direction
197 207 204 199 200 197 200 195 191 193 192 197 198 203 203 206 212 205 204 203 205 205 206 204 207 210 210 207 206 209 238 250 267
195 203 204 204 202 202 200 199 199 196 194 197 196 202 206 206 208 215 209 206 202 209 220 220 213 218 220 216 215 209 216 241 247
202 205 206 207 204 203 200 204 199 200 201 200 198 197 202 209 210 213 213 208 214 222 226 225 222 222 225 226 214 210 209 216 221
214 211 204 197 202 202 202 198 198 197 198 201 201 199 201 203 208 213 218 218 220 225 226 227 228 222 227 230 219 212 217 226 232
208 209 203 197 200 199 196 197 195 197 195 200 204 204 201 205 203 204 216 221 222 224 227 218 221 236 233 236 231 226 219 225 237
236 218 204 195 193 192 195 198 197 198 195 200 199 196 202 206 206 201 204 213 221 229 225 228 227 229 225 229 224 219 228 231 236
326 207 196 193 185 190 190 195 197 197 203 200 193 195 198 202 207 209 209 203 203 216 229 225 222 227 228 230 226 228 236 230 227
333 177 181 193 198 191 183 188 201 203 203 198 196 197 202 207 209 206 206 207 204 209 220 231 228 241 223 224 225 229 231 237 235
342 270 195 200 187 170 189 187 196 197 203 198 192 194 211 208 204 209 211 201 200 213 222 231 227 235 250 230 193 81 19 314 257
353 43 99 139 215 188 187 198 193 193 187 163 201 202 208 208 207 209 212 209 197 203 211 226 238 243 212 197 150 83 189 218 243
358 11 41 90 122 124 133 153 148 150 146 166 185 198 197 197 176 178 175 196 196 183 175 166 164 169 155 165 76 18 336 270 233
4 6 4 39 66 97 117 121 134 139 148 152 153 141 129 122 132 137 163 174 180 194 138 138 120 115 130 141 85 12 339 294 240
15 19 13 22 75 78 74 71 116 108 105 109 118 126 135 129 221 161 173 220 180 162 185 140 120 110 88 54 12 11 342 281 281
27 31 36 39 74 67 52 41 58 97 101 102 135 134 144 123 198 159 171 181 140 143 131 125 109 105 83 81 20 2 342 28 145
57 46 49 55 64 58 52 39 81 90 78 63 85 86 105 123 126 107 113 104 73 88 111 101 100 124 109 59 37 18 18 55 77
88 74 71 66 77 72 60 66 86 85 53 64 96 90 76 63 51 48 62 104 95 88 77 90 125 117 94 69 55 53 39 39 67
104 94 84 90 91 86 76 70 81 90 97 100 99 97 89 61 60 60 36 55 51 91 106 122 104 129 120 113 85 54 32 38 71
104 97 87 87 93 91 81 79 77 79 86 97 96 97 96 96 87 84 76 65 41 69 49 1 98 114 113 109 92 75 99 74 13
102 98 92 84 85 87 81 80 73 69 71 79 85 85 82 83 85 84 86 90 88 48 63 52 47 22 121 94 125 154 113 91 114
102 100 101 99 96 91 84 80 73 68 76 97 102 105 102 99 113 113 110 118 116 118 92 75 61 61 69 59 139 128 72 98 122